Accueil
METAR-TAF:

METAR-TAF

Aéroports :

Base des Forces canadiennes Valcartier

Valcartier, Québec, Canada

latitude: 46-54N, longitude: 071-30W, altitude: 168 m

Observation

Le bulletin a été fait il y a 26 minutes, à 00:00 UTC
Vent 5 kt de sud-ouest
Température 13°C
Humidité 44%
Pression 1008 hPa
Visibilité: 14.5 km
Ciel clair

METAR: CYOY 030000Z AUTO 23005KT 9SM CLR 13/01 A2978 RMK SLP088

Heure: 20:26 (00:26 UTC)


TAF: absent

Observations et prévisions météorologiques de plus de 4000 aéroports (messages METAR et TAF).

Les stations disponibles sont représentées par des disques jaunes et rouges sur la carte.

Passer la souris dessus pour voir le nom de la station.

Cliquer dessus pour voir les observations et prévisions météorologiques.

Pour changer de carte: cliquez sur les boutons verts avec une croix noire pour zoomer, sur le bouton vert avec un tiret pour effectuer un zoom arrière, ou sur les flèches vertes pour les cartes adjacentes.


METAR-TAF: